Location: Newark
(39.0622°N, 106.5590°E)
Time: 15:15:23
(UTC+00:00)

Courier 1B - Pass Details

Date: 01 February 2020
Orbit: 962 x 1209 km, 28.3° (Epoch: 17 February)

Event Time Altitude Azimuth Distance (km) Brightness Sun altitude
Rises 16:50:04 0° 233° (SW) 3,648 - -67.7°
Reaches altitude 10° 16:53:05 10° 221° (SW) 2,723 - -67.8°
Maximum altitude 16:58:28 27° 166° (SSE) 1,826 - -68.0°
Drops below altitude 10° 17:04:04 10° 111° (ESE) 2,845 - -68.0°
Sets 17:07:16 0° 100° (E) 3,843 - -68.0°
